Regional Weather Roundup
Issued by NWS

Home | Current Version | Previous Version | Text Only | Print | Product List | Glossary Off
Versions: 1 2 3 4 5 6 7 8 9 10 11 12 13 14 15 16 17 18 19 20 21 22 23 24 25 26 27 28 29 30 31 32 33 34 35 36 37 38 39 40 41 42 43 44 45 46 47 48

000
ASUS45 KCYS 281510
RWRWY

WYOMING REGIONAL WEATHER ROUNDUP
NATIONAL WEATHER SERVICE CHEYENNE WY
900 AM MDT MON JUL 28 2014

NOTE:  "FAIR" INDICATES FEW OR NO CLOUDS BELOW 12,000 FEET
WITH NO SIGNIFICANT WEATHER AND/OR OBSTRUCTIONS TO VISIBILITY.

WYZ001-281600-
YELLOWSTONE NATIONAL PARK

CITY           SKY/WX    TMP DP  RH WIND       PRES   REMARKS
LK YELLOWSTONE   N/A     58  40  51 CALM      30.53S
W YELLOWSTONE  NOT AVBL

$$
WYZ002>013-054>058-071-098>099-281600-
NORTHERN WYOMING

CITY           SKY/WX    TMP DP  RH WIND       PRES   REMARKS
JACKSON        NOT AVBL
CODY           NOT AVBL
GREYBULL       SUNNY     71  44  37 CALM      30.27F
WORLAND        SUNNY     70  41  34 NW3       30.29S
SHERIDAN       SUNNY     68  47  46 NE3       30.31S
BUFFALO        SUNNY     67  47  48 SE8       30.37S
GILLETTE       SUNNY     69  50  50 SE16G23   30.35R
HULETT         FAIR      66  52  59 MISG      30.37
NEWCASTLE      FAIR      72  45  37 SE10      30.37

$$
WYZ014>020-022>026-101>103-281600-
CENTRAL WYOMING

CITY           SKY/WX    TMP DP  RH WIND       PRES   REMARKS
BIG PINEY      SUNNY     66  37  34 CALM      30.47S
PINEDALE       MOSUNNY   63  39  42 NW6       30.48S
DUBOIS         FAIR      61  32  33 NW7       30.48S
LANDER         SUNNY     72  37  28 VRB3      30.36S
RIVERTON       SUNNY     69  39  33 CALM      30.37R
CASPER         SUNNY     66  47  50 CALM      30.37S
DOUGLAS        SUNNY     69  49  48 SE7       30.37S

$$
WYZ021-027>030-104>119-281600-
SOUTHERN WYOMING

CITY           SKY/WX    TMP DP  RH WIND       PRES   REMARKS
EVANSTON       PTSUNNY   69  36  29 E8        30.44R
KEMMERER       MOSUNNY  N/A N/A N/A NE13G18   30.46R
FORT BRIDGER   FAIR      67  39  35 N5        30.46S
ROCK SPRINGS   SUNNY     71  49  45 NE12      30.42R
DIXON          FAIR      71  45  39 SE3       30.44R
RAWLINS        SUNNY     66  50  56 E6        30.44S
SARATOGA       FAIR      66  52  59 SE3       30.46S
LARAMIE        SUNNY     63  53  70 S6        30.48R
CHEYENNE       SUNNY     67  56  67 CALM      30.41S
TORRINGTON     SUNNY     67  50  54 SE14      30.33R
PINE BLUFFS    FAIR      70  54  56 CALM      30.38S

$$


USA.gov is the U.S. government's official web portal to all federal, state and local government web resources and services.